This is the latest recevied weather packets stored in our database for station/object N2ZVN. If no packets are shown the sender has not sent any weather packets the latest 10 day(s).
| Time | Temp. | Humidity | Pressure | Rain* | Wind** | Luminosity | Snow |
|---|---|---|---|---|---|---|---|
| 1787948740 | 20.56° C | 55% | 1021.6 hPa | 0 mm | - | 24 W/m² | - |
| 1787948434 | 20.56° C | 50% | 1021.7 hPa | 0 mm | - | 154 W/m² | - |
| 1787948130 | 20.56° C | 50% | 1021.7 hPa | 0 mm | - | 24 W/m² | - |
| 1787947829 | 20.56° C | 51% | 1021.7 hPa | 0 mm | - | 30 W/m² | - |
| 1787947528 | 20.56° C | 52% | 1021.8 hPa | 0 mm | - | 25 W/m² | - |
| 1787947223 | 20.56° C | 49% | 1021.8 hPa | 0 mm | - | 25 W/m² | - |
| 1787946922 | 20.56° C | 50% | 1022 hPa | 0 mm | - | 27 W/m² | - |
| 1787946629 | 20.56° C | 49% | 1022.2 hPa | 0 mm | - | 25 W/m² | - |
| 1787946316 | 20.56° C | 55% | 1022.1 hPa | 0 mm | - | 43 W/m² | - |
| 1787946016 | 20.56° C | 53% | 1022 hPa | 0 mm | - | 152 W/m² | - |
| 1787945715 | 20.56° C | 51% | 1022.2 hPa | 0 mm | - | 322 W/m² | - |
| 1787945410 | 20° C | 52% | 1022 hPa | 0 mm | - | 28 W/m² | - |
| 1787945106 | 20° C | 54% | 1022.1 hPa | 0 mm | - | 35 W/m² | - |
| 1787944803 | 20° C | 54% | 1022.1 hPa | 0 mm | - | 34 W/m² | - |
| 1787944498 | 20° C | 55% | 1022.6 hPa | 0 mm | - | 165 W/m² | - |
| 1787944194 | 20° C | 56% | 1022.4 hPa | 0 mm | - | 232 W/m² | - |
| 1787943893 | 20° C | 57% | 1022.3 hPa | 0 mm | - | 76 W/m² | - |
| 1787943588 | 20° C | 55% | 1022.2 hPa | 0 mm | - | 41 W/m² | - |
| 1787943284 | 20° C | 53% | 1022.6 hPa | 0 mm | - | 29 W/m² | - |
| 1787942984 | 20° C | 52% | 1022.5 hPa | 0 mm | - | 73 W/m² | - |
| 1787942680 | 20° C | 55% | 1022.4 hPa | 0 mm | - | 226 W/m² | - |
| 1787942378 | 20° C | 53% | 1022.4 hPa | 0 mm | - | 333 W/m² | - |
| 1787942073 | 20° C | 57% | 1022.4 hPa | 0 mm | - | 81 W/m² | - |
| 1787941770 | 20° C | 55% | 1022.4 hPa | 0 mm | - | 29 W/m² | - |
| 1787941468 | 19.44° C | 56% | 1022.4 hPa | 0 mm | - | 30 W/m² | - |
* Rain latest hour (hover to see other rain measurements)
** Current wind speed in m/s (hover to see current wind gust speed)